Zurück zum Katalog

COSMOS 2251 DEB

AktivLEO
NORAD 34572·DEBRIS·🇷🇺 Russia

Gestartet Jun 16, 1993 von Plesetsk Cosmodrome

Loading…

Nächste Überflüge (nächste 24 Stunden)

TLE

AktuellSource: Space-Track

Epoche: Sep 13, 2026, 06:01 UTC

1 34572U 93036VJ  26256.25126310  .00003417  00000-0  79705-3 0  9999
2 34572  74.0088 317.2086 0064710 323.0205 100.1393 14.53884025913639

Verfolge COSMOS 2251 DEB in Echtzeit mit AllMySat

Download on the App Store